This demonstration page uses our WeatherBlox Daily Observations layout. Learn more.

Left ArrowRight Arrow

Hourly Observations for December 27, 2015

Temp ( °F °C ) Dew Point ( °F °C ) Humidity (%) Winds ( mph kmh ) Pressure ( in mb ) Visibility ( mi km ) Precip ( " mm )
12:53 am 00:53 Clear 31 -0.6 26 -3.3 82 82 SE 3 6 30.30 1026 10 16 0.00 0.00
1:53 am 01:53 Clear 31 -0.6 26 -3.3 82 82 ESE 3 6 30.29 1026 10 16 0.00 0.00
2:53 am 02:53 Clear 32 0 26 -3.3 79 79 Calm 30.29 1026 10 16 0.00 0.00
3:53 am 03:53 Clear 34 1.1 27 -2.8 76 76 NW 6 9 30.30 1026 10 16 0.00 0.00
4:53 am 04:53 Clear 32 0 27 -2.8 82 82 NE 3 6 30.30 1026 10 16 0.00 0.00
5:53 am 05:53 Clear 34 1.1 27 -2.8 76 76 NNE 3 6 30.31 1026 10 16 0.00 0.00
6:53 am 06:53 Clear 33 0.6 27 -2.8 78 78 NW 5 7 30.31 1026 10 16 0.00 0.00
7:53 am 07:53 Sunny 35 1.7 28 -2.2 76 76 Calm 30.30 1026 10 16 0.00 0.00
8:53 am 08:53 Sunny 36 2.2 28 -2.2 73 73 Calm 30.31 1026 10 16 0.00 0.00
9:53 am 09:53 Mostly Sunny 38 3.3 29 -1.7 70 70 Calm 30.31 1026 10 16 0.00 0.00
10:53 am 10:53 Mostly Cloudy 40 4.4 31 -0.6 70 70 Calm 30.30 1026 10 16 0.00 0.00
11:53 am 11:53 Sunny 45 7.2 32 0 61 61 Calm 30.24 1024 10 16 0.00 0.00
12:53 pm 12:53 Sunny 47 8.3 31 -0.6 54 54 N 5 7 30.22 1023 10 16 0.00 0.00
1:53 pm 13:53 Mostly Cloudy 46 7.8 29 -1.7 51 51 Calm 30.19 1022 10 16 0.00 0.00
2:53 pm 14:53 Cloudy 46 7.8 30 -1.1 54 54 Calm 30.17 1022 10 16 0.00 0.00
3:53 pm 15:53 Cloudy 46 7.8 30 -1.1 54 54 Calm 30.16 1021 10 16 0.00 0.00
4:53 pm 16:53 Cloudy 45 7.2 31 -0.6 58 58 WNW 6 9 30.16 1021 10 16 0.00 0.00
5:53 pm 17:53 Cloudy with Light Rain 44 6.7 30 -1.1 58 58 W 7 11 30.18 1022 8 13 0.00 0.03
6:08 pm 18:08 Cloudy 43 6 30 -1 61 61 NNE 5 7 30.15 1021 10 16 0.00 0.00
6:53 pm 18:53 Cloudy 43 6.1 32 0 65 65 N 6 9 30.16 1022 10 16 0.01 0.25
7:00 pm 19:00 Cloudy 43 6 30 -1 61 61 N 6 9 30.15 1021 10 16 0.00 0.00
7:53 pm 19:53 Cloudy 42 5.6 32 0 68 68 W 5 7 30.16 1021 10 16 0.00 0.00
8:53 pm 20:53 Cloudy 42 5.6 32 0 68 68 NNW 6 9 30.15 1021 10 16 0.00 0.00
9:53 pm 21:53 Cloudy 42 5.6 33 0.6 71 71 NW 5 7 30.15 1021 10 16 0.00 0.00
10:53 pm 22:53 Cloudy 40 4.4 34 1.1 79 79 N 8 13 30.16 1021 10 16 0.01 0.25
11:53 pm 23:53 Mostly Cloudy 39 3.9 34 1.1 82 82 Calm 30.14 1021 10 16 0.00 0.00

Powered by AerisWeather